Location: Colonia Mina de C?rbuni
(46.1667°N, 22.7167°E)
Time: 06:57:00
(UTC+00:00)

Vanguard 2 - Pass Details

Date: 14 April 2024
Orbit: 552 x 2914 km, 32.9° (Epoch: 27 May)

Event Time Altitude Azimuth Distance (km) Brightness Sun altitude
Rises 08:26:25 0° 273° (W) 6,134 11.8 45.0°
Reaches altitude 10° 08:33:01 10° 256° (WSW) 4,643 11.4 45.8°
Maximum altitude 08:39:19 16° 225° (SW) 3,633 11.2 46.6°
Drops below altitude 10° 08:44:24 10° 192° (SSW) 3,569 11.5 47.2°
Sets 08:48:25 0° 171° (S) 4,112 11.8 47.6°
